Location: Northcutt
(34.7304°N, 84.4305°W)
Time: 07:18:19
(UTC+00:00)

Transit 2A Rocket - Pass Details

Date: 08 October 2022
Orbit: 589 x 911 km, 66.7° (Epoch: 04 December)

Event Time Altitude Azimuth Distance (km) Brightness Sun altitude
Exits shadow 08:37:18 13° 80° (E) 1,721 7.5 -37.3°
Drops below altitude 10° 08:38:12 10° 69° (ENE) 1,915 7.8 -37.1°
Sets 08:41:09 0° 48° (NE) 2,825 8.8 -36.6°
